Weather History for KC75 - October, 2012

Change the Weather History Date:

Wednesday, October 3, 2012

  Actual Average (KPIA) Record (KPIA)
Temperature  
Mean Temperature 64 °F 59 °F  
Max Temperature 70 °F 70 °F 93 °F (2006)
Min Temperature 59 °F 48 °F 30 °F (1974)
Degree Days  
Heating Degree Days 0 8  
Month to date heating degree days 22  
Since 1 July heating degree days 112  
Cooling Degree Days 0 1  
Month to date cooling degree days 3  
Year to date cooling degree days 1027  
Growing Degree Days 14 (Base 50)    
Moisture  
Dew Point 55 °F    
Average Humidity 71    
Maximum Humidity 82    
Minimum Humidity 59    
Precipitation  
Precipitation 0.00 in 0.09 in 2.03 in (1986)
Month to date precipitation 0.27  
Year to date precipitation 28.37  
Snow  
Snow 0.00 in 0.00 in 0.00 in ()
Month to date snowfall 0.0  
Since 1 July snowfall 0.0  
Since 1 September snowfall 0.0  
Snow Depth -    
Sea Level Pressure  
Sea Level Pressure 29.96 in    
Wind  
Wind Speed 2 mph (South)    
Max Wind Speed 7 mph    
Max Gust Speed -    
Visibility 10 miles    
Events      
T = Trace of Precipitation, MM = Missing Value Source: NWS Daily Summary

Daily Weather History Graph

Daily Weather History Graph

Search for Another Location

Airport or City:

Trip Planner

Search our weather history database for the weather conditions in past years. The results will help you decide how hot, cold, wet, or windy it might be!

Date:

Astronomy

Oct. 03, 2012 Rise Set
Actual Time 6:56 AM CDT 6:35 PM CDT
Civil Twilight 6:29 AM CDT 7:02 PM CDT
Nautical Twilight 5:57 AM CDT 7:34 PM CDT
Astronomical Twilight 5:25 AM CDT 8:06 PM CDT
Moon 8:25 PM CDT (10/3) 10:21 AM CDT (10/3)
Length of Visible Light 12h 33m
Length of Day
11h 38m
Waning Gibbous, 88% of the Moon is Illuminated
Oct 3
Waning Gibbous
Oct 8
Last Quarter
Oct 15
New
Oct 21
First Quarter
Oct 29
Full

Hourly Weather History & Observations

Time (CDT) Temp. Dew Point Humidity Pressure Visibility Wind Dir Wind Speed Gust Speed Precip Events Conditions
12:15 AM 64.0 °F 53.4 °F 68% 29.90 in 10.0 mi NE 3.5 mph - N/A   Overcast
12:35 AM 63.7 °F 53.4 °F 69% 29.89 in 10.0 mi NE 4.6 mph - N/A   Overcast
12:55 AM 63.5 °F 53.2 °F 69% 29.89 in 10.0 mi NNE 4.6 mph - N/A   Overcast
1:15 AM 63.1 °F 53.6 °F 71% 29.89 in 10.0 mi NE 5.8 mph - N/A   Overcast
1:35 AM 63.0 °F 53.8 °F 72% 29.89 in 10.0 mi Calm Calm - N/A   Overcast
1:55 AM 62.6 °F 54.1 °F 74% 29.89 in 10.0 mi Calm Calm - N/A   Overcast
2:15 AM 62.4 °F 54.7 °F 76% 29.89 in 10.0 mi Calm Calm - N/A   Overcast
2:35 AM 62.6 °F 54.3 °F 74% 29.90 in 10.0 mi Calm Calm - N/A   Overcast
2:55 AM 62.6 °F 54.3 °F 74% 29.90 in 10.0 mi Calm Calm - N/A   Overcast
3:15 AM 62.6 °F 54.7 °F 75% 29.90 in 10.0 mi Calm Calm - N/A   Overcast
3:35 AM 62.6 °F 54.9 °F 76% 29.90 in 10.0 mi Calm Calm - N/A   Overcast
3:55 AM 62.1 °F 54.5 °F 76% 29.90 in 10.0 mi Calm Calm - N/A   Overcast
4:15 AM 62.1 °F 54.0 °F 75% 29.91 in 10.0 mi Calm Calm - N/A   Overcast
4:35 AM 61.7 °F 53.8 °F 75% 29.91 in 10.0 mi Calm Calm - N/A   Overcast
4:55 AM 61.2 °F 52.9 °F 74% 29.92 in 10.0 mi Calm Calm - N/A   Overcast
5:15 AM 61.3 °F 52.2 °F 72% 29.93 in 10.0 mi Calm Calm - N/A   Overcast
5:35 AM 61.0 °F 52.2 °F 73% 29.93 in 10.0 mi WNW 3.5 mph - N/A   Overcast
5:55 AM 61.0 °F 52.0 °F 72% 29.93 in 10.0 mi Calm Calm - N/A   Overcast
6:15 AM 61.0 °F 51.8 °F 72% 29.93 in 10.0 mi Calm Calm - N/A   Overcast
6:35 AM 60.3 °F 52.3 °F 75% 29.94 in 10.0 mi Calm Calm - N/A   Overcast
6:55 AM 60.1 °F 52.5 °F 76% 29.94 in 10.0 mi Calm Calm - N/A   Overcast
7:15 AM 59.9 °F 53.1 °F 78% 29.94 in 10.0 mi Calm Calm - N/A   Overcast
7:35 AM 60.3 °F 53.4 °F 78% 29.95 in 10.0 mi Calm Calm - N/A   Overcast
7:55 AM 60.6 °F 53.8 °F 78% 29.95 in 10.0 mi Calm Calm - N/A   Overcast
8:15 AM 60.8 °F 53.6 °F 77% 29.96 in 10.0 mi Calm Calm - N/A   Overcast
8:35 AM 61.2 °F 53.6 °F 76% 29.96 in 10.0 mi Calm Calm - N/A   Overcast
8:55 AM 61.7 °F 52.5 °F 72% 29.96 in 10.0 mi Calm Calm - N/A   Overcast
9:15 AM 61.5 °F 53.6 °F 75% 29.96 in 10.0 mi Calm Calm - N/A   Overcast
9:35 AM 62.1 °F 52.9 °F 72% 29.96 in 10.0 mi Calm Calm - N/A   Overcast
9:55 AM 62.8 °F 53.1 °F 71% 29.96 in 10.0 mi Calm Calm - N/A   Overcast
10:15 AM 63.9 °F 53.2 °F 68% 29.96 in 10.0 mi SW 3.5 mph - N/A   Mostly Cloudy
10:35 AM 65.5 °F 54.7 °F 68% 29.96 in 10.0 mi SW 3.5 mph - N/A   Scattered Clouds
10:55 AM 67.6 °F 55.2 °F 64% 29.96 in 10.0 mi West 5.8 mph - N/A   Mostly Cloudy
11:15 AM 68.0 °F 53.2 °F 59% 29.96 in 10.0 mi WSW 4.6 mph - N/A   Overcast
11:35 AM 67.8 °F 53.2 °F 60% 29.97 in 10.0 mi West 6.9 mph - N/A   Overcast
11:55 AM 68.0 °F 54.0 °F 61% 29.97 in 10.0 mi WSW 5.8 mph - N/A   Overcast
12:15 PM 68.4 °F 54.5 °F 61% 29.97 in 10.0 mi West 3.5 mph - N/A   Overcast
12:35 PM 69.1 °F 55.4 °F 62% 29.96 in 10.0 mi WNW 4.6 mph - N/A   Overcast
12:55 PM 69.8 °F 55.0 °F 59% 29.96 in 10.0 mi WNW 3.5 mph - N/A   Overcast
1:15 PM 70.0 °F 54.9 °F 59% 29.96 in 10.0 mi Calm Calm - N/A   Overcast
1:35 PM 70.5 °F 55.9 °F 60% 29.95 in 10.0 mi SSW 4.6 mph - N/A   Overcast
1:55 PM 69.4 °F 55.2 °F 60% 29.95 in 10.0 mi SSW 5.8 mph - N/A   Overcast
2:15 PM 69.1 °F 55.4 °F 62% 29.95 in 10.0 mi South 5.8 mph - N/A   Overcast
2:35 PM 68.9 °F 55.9 °F 63% 29.95 in 10.0 mi South 5.8 mph - N/A   Unknown
2:55 PM 69.3 °F 56.1 °F 63% 29.96 in 10.0 mi South 6.9 mph - N/A   Overcast
3:15 PM 68.5 °F 56.8 °F 66% 29.96 in 10.0 mi South 5.8 mph - N/A   Overcast
3:35 PM 68.5 °F 56.8 °F 66% 29.96 in 10.0 mi South 4.6 mph - N/A   Overcast
3:55 PM 68.5 °F 56.3 °F 65% 29.96 in 10.0 mi South 4.6 mph - N/A   Overcast
4:15 PM 68.5 °F 56.3 °F 65% 29.96 in 10.0 mi South 5.8 mph - N/A   Overcast
4:35 PM 68.4 °F 57.2 °F 67% 29.96 in 10.0 mi South 5.8 mph - N/A   Overcast
4:55 PM 68.4 °F 57.6 °F 68% 29.96 in 10.0 mi South 3.5 mph - N/A   Overcast
5:15 PM 68.5 °F 57.6 °F 68% 29.96 in 10.0 mi Calm Calm - N/A   Overcast
5:35 PM 68.0 °F 57.6 °F 69% 29.96 in 10.0 mi South 3.5 mph - N/A   Overcast
5:55 PM 67.5 °F 57.7 °F 71% 29.97 in 10.0 mi Calm Calm - N/A   Overcast
6:15 PM 67.3 °F 58.1 °F 72% 29.97 in 10.0 mi SE 3.5 mph - N/A   Mostly Cloudy
6:35 PM 66.4 °F 58.1 °F 75% 29.97 in 10.0 mi Calm Calm - N/A   Mostly Cloudy
6:55 PM 66.4 °F 57.9 °F 74% 29.98 in 10.0 mi Calm Calm - N/A   Overcast
7:15 PM 66.0 °F 58.1 °F 76% 29.98 in 10.0 mi Calm Calm - N/A   Overcast
7:35 PM 66.0 °F 58.5 °F 77% 29.99 in 10.0 mi Calm Calm - N/A   Overcast
7:55 PM 64.4 °F 58.8 °F 82% 30.00 in 10.0 mi Calm Calm - N/A   Overcast
8:15 PM 65.3 °F 58.5 °F 78% 30.00 in 10.0 mi Calm Calm - N/A   Overcast
8:35 PM 64.9 °F 58.5 °F 79% 30.01 in 10.0 mi Calm Calm - N/A   Overcast
8:55 PM 64.6 °F 59.0 °F 82% 30.02 in 10.0 mi Calm Calm - N/A   Light Drizzle
9:15 PM 64.2 °F 57.9 °F 80% 30.02 in 10.0 mi Calm Calm - N/A   Overcast
9:35 PM 63.7 °F 57.6 °F 80% 30.02 in 10.0 mi Calm Calm - N/A   Overcast
9:55 PM 64.4 °F 55.4 °F 73% 30.02 in 10.0 mi East 3.5 mph - N/A   Overcast
10:15 PM 63.7 °F 55.0 °F 73% 30.03 in 10.0 mi East 6.9 mph - N/A   Overcast
10:35 PM 63.7 °F 53.8 °F 70% 30.03 in 10.0 mi ESE 4.6 mph - N/A   Overcast
10:55 PM 63.7 °F 53.6 °F 70% 30.03 in 10.0 mi ESE 4.6 mph - N/A   Overcast
11:15 PM 63.5 °F 53.6 °F 70% 30.03 in 10.0 mi ESE 3.5 mph - N/A   Overcast
11:35 PM 62.6 °F 54.0 °F 73% 30.03 in 10.0 mi Calm Calm - N/A   Overcast
11:55 PM 62.6 °F 54.0 °F 73% 30.03 in 10.0 mi ESE 3.5 mph - N/A   Overcast